NEODyS-2

Near Earth Objects - Dynamic Site
NEODyS ∴ Observatories ∴ Site 691 ∴ Obs & residuals
Contact »
691  ▹ 
OBSERVATIONS AND RESIDUALS

691-Steward Observatory, Kitt Peak-Spacewatch

Detections | Residuals | Detections & Residuals

[1-200] [201-400] [401-600] [601-800] [801-1000] [1001-1200] [1201-1400] [1401-1600] [1601-1800] [1801-2000] [2001-2200] [2201-2400] [2401-2600] [2601-2800] [2801-3000] [3001-3200] [3201-3400] [3401-3600] [3601-3800] [3801-4000] [4001-4200] [4201-4400] [4401-4600] [4601-4800] [4801-5000] [5001-5200] [5201-5400] [5401-5600] [5601-5800] [5801-6000] [6001-6200] [6201-6400] [6401-6600] [6601-6800] [6801-7000] [7001-7200] [7201-7400] [7401-7600] [7601-7800] [7801-8000] [8001-8200] [8201-8400] [8401-8600] [8601-8800] [8801-9000] [9001-9200] [9201-9400] [9401-9600] [9601-9800] [9801-10000] [10001-10200] [10201-10400] [10401-10600] [10601-10800] [10801-11000] [11001-11200] [11201-11400] [11401-11600] [11601-11800] [11801-12000] [12001-12200] [12201-12400] [12401-12600] [12601-12800] [12801-13000] [13001-13200] [13201-13400] [13401-13600] [13601-13800] [13801-14000] [14001-14200] [14201-14400] [14401-14600] [14601-14800] [14801-15000] [15001-15200] [15201-15400] [15401-15600] [15601-15800] [15801-16000] [16001-16200] [16201-16400] [16401-16600] [16601-16800] [16801-17000] [17001-17200] [17201-17400] [17401-17600] [17601-17800] [17801-18000] [18001-18200] [18201-18400] [18401-18600] [18601-18800] [18801-19000] [19001-19200] [19201-19400] [19401-19600] [19601-19800] [19801-20000] [20001-20200] [20201-20400] [20401-20600] [20601-20800] [20801-21000] [21001-21200] [21201-21400] [21401-21600] [21601-21800] [21801-22000] [22001-22200] [22201-22400] [22401-22600] [22601-22800] [22801-23000] [23001-23200] [23201-23400] [23401-23600] [23601-23800] [23801-24000] [24001-24200] [24201-24400] [24401-24600] [24601-24800] [24801-25000] [25001-25200] [25201-25400] [25401-25600] [25601-25800] [25801-26000] [26001-26200] [26201-26400] [26401-26600] [26601-26800] [26801-27000] [27001-27200] [27201-27400] [27401-27600] [27601-27800] [27801-28000] [28001-28200] [28201-28400] [28401-28600] [28601-28800] [28801-29000] [29001-29200] [29201-29400] [29401-29600] [29601-29800] [29801-30000] [30001-30200] [30201-30400] [30401-30600] [30601-30800] [30801-31000] [31001-31200] [31201-31400] [31401-31600] [31601-31800] [31801-32000] [32001-32200] [32201-32400] [32401-32600] [32601-32800] [32801-33000] [33001-33200] [33201-33400] [33401-33600] [33601-33800] [33801-34000] [34001-34200] [34201-34400] [34401-34600] [34601-34800] [34801-35000] [35001-35200] [35201-35400] [35401-35600] [35601-35800] [35801-36000] [36001-36200] [36201-36400] [36401-36600] [36601-36800] [36801-37000] [37001-37200] [37201-37400] [37401-37600] [37601-37800] [37801-38000] [38001-38200] [38201-38400] [38401-38600] [38601-38800] [38801-39000] [39001-39200] [39201-39400] [39401-39600] [39601-39800] [39801-40000] [40001-40200] [40201-40400] [40401-40600] [40601-40800] [40801-41000] [41001-41200] [41201-41400] [41401-41600] [41601-41800] [41801-42000] [42001-42200] [42201-42400] [42401-42600] [42601-42800] [42801-43000] [43001-43200] [43201-43400] [43401-43600] [43601-43800] [43801-44000] [44001-44200] [44201-44400] [44401-44600] [44601-44800] [44801-45000] [45001-45200] [45201-45400] [45401-45600] [45601-45800] [45801-46000] [46001-46200] [46201-46400] [46401-46600] [46601-46800] [46801-47000] [47001-47200] [47201-47400] [47401-47600] [47601-47800] [47801-48000] [48001-48200] [48201-48400] [48401-48600] [48601-48800] [48801-49000] [49001-49200] [49201-49400] [49401-49600] [49601-49800] [49801-50000] [50001-50200] [50201-50388]

Designation T Tech N Date Right Ascension Declination Apparent Magnitude Star Catalog Site code χ Used A Used M
yr-mo-day precision hr:min:sec precision rms F bias residual deg min sec precision rms F bias residual mag/col rms residual
2011PT O C 2011-11-26.23760 1.000E-05 04:56:20.200 1.500E-01 0.500 F -0.272 -0.533 +20° 12' 56.50" 1.000E-01 0.500 F 0.252 0.132 20.7 V 0.70 0.20 o 691 1.11 Yes Yes
2011WC44 O C 2011-11-26.25301 1.000E-05 05:26:47.620 1.500E-01 0.500 F -0.146 -0.334 +19° 20' 45.50" 1.000E-01 0.500 F 0.121 -0.031 18.9 V 0.70 0.12 o 691 0.68 Yes Yes
2011WC44 O C 2011-11-26.27568 1.000E-05 05:26:40.950 1.500E-01 0.500 F -0.146 -0.434 +19° 19' 09.60" 1.000E-01 0.500 F 0.121 -1.005 18.7 V 0.70 -0.08 o 691 2.22 Yes Yes
2011WC44 O C 2011-11-26.29089 1.000E-05 05:26:36.490 1.500E-01 0.500 F -0.146 -0.211 +19° 18' 03.20" 1.000E-01 0.500 F 0.121 -3.698 18.0 V 0.70 -0.78 o 691 7.32 No Yes
2003RN10 O C 2011-11-26.37513 1.000E-05 06:39:29.290 1.500E-01 0.500 F -0.120 0.286 +20° 30' 32.40" 1.000E-01 0.500 F 0.202 -0.096 21.1 V 0.70 0.07 o 691 0.60 Yes Yes
2003RN10 O C 2011-11-26.39374 1.000E-05 06:39:28.210 1.500E-01 0.500 F -0.120 -0.024 +20° 30' 26.60" 1.000E-01 0.500 F 0.202 -0.319 20.8 V 0.70 -0.23 o 691 0.64 Yes Yes
2003RN10 O C 2011-11-26.40897 1.000E-05 06:39:27.350 1.500E-01 0.500 F -0.120 0.065 +20° 30' 22.60" 1.000E-01 0.500 F 0.202 0.255 20.9 V 0.70 -0.13 o 691 0.53 Yes Yes
Mithra O C H 2011-11-27.17559 1.000E-05 04:41:30.950 1.500E-01 0.500 F -0.151 -0.216 +21° 18' 31.50" 1.000E-01 0.500 F 0.202 -0.795 20.9 V 0.70 0.19 o 691 1.65 Yes Yes
Mithra O C H 2011-11-27.21117 1.000E-05 04:41:28.580 1.500E-01 0.500 F -0.151 0.065 +21° 18' 29.00" 1.000E-01 0.500 F 0.202 0.312 21.3 V 0.70 0.59 o 691 0.64 Yes Yes
2001XS30 O C 2011-11-27.38415 1.000E-05 05:52:50.870 1.500E-01 0.500 F -0.165 -0.549 +17° 40' 47.10" 1.000E-01 0.500 F 0.147 -0.167 20.7 V 0.70 0.45 o 691 1.15 Yes Yes
2001XS30 O C 2011-11-27.39436 1.000E-05 05:52:49.450 1.500E-01 0.500 F -0.165 0.288 +17° 40' 40.90" 1.000E-01 0.500 F 0.147 -0.402 20.0 V 0.70 -0.25 o 691 0.99 Yes Yes
2001XS30 O C 2011-11-27.40477 1.000E-05 05:52:47.830 1.500E-01 0.500 F -0.165 -1.318 +17° 40' 34.70" 1.000E-01 0.500 F 0.147 -0.510 20.7 V 0.70 0.45 o 691 2.83 Yes Yes
2011WR46 O C 2011-11-27.45339 1.000E-05 06:50:52.670 1.500E-01 0.500 F -0.094 -0.332 +18° 28' 20.90" 1.000E-01 0.500 F 0.176 0.239 19.2 V 0.70 0.33 o 691 0.85 Yes Yes
2011WR46 O C 2011-11-27.46643 1.000E-05 06:50:54.310 1.500E-01 0.500 F -0.094 -0.379 +18° 27' 57.70" 1.000E-01 0.500 F 0.176 0.097 19.9 V 0.70 1.03 o 691 0.82 Yes Yes
2011WR46 O C 2011-11-27.47981 1.000E-05 06:50:56.000 1.500E-01 0.500 F -0.094 -0.422 +18° 27' 31.90" 1.000E-01 0.500 F 0.176 -1.941 18.7 V 0.70 -0.17 o 691 3.90 No Yes
1990BG O C 2011-11-27.50729 1.000E-05 12:19:18.200 1.500E-01 0.500 F 0.115 0.025 +13° 45' 38.20" 1.000E-01 0.500 F 0.143 0.051 17.9 V 0.70 0.33 o 691 0.11 Yes Yes
1990BG O C 2011-11-27.52003 1.000E-05 12:19:21.630 1.500E-01 0.500 F 0.115 0.009 +13° 45' 35.30" 1.000E-01 0.500 F 0.143 -0.030 17.8 V 0.70 0.23 o 691 0.06 Yes Yes
1990BG O C 2011-11-27.53759 1.000E-05 12:19:26.350 1.500E-01 0.500 F 0.115 -0.098 +13° 45' 31.40" 1.000E-01 0.500 F 0.143 -0.030 17.8 V 0.70 0.23 o 691 0.21 Yes Yes
2004KD1 O C 2011-11-28.11265 1.000E-05 04:18:41.420 1.500E-01 0.500 F -0.104 -0.483 +29° 35' 11.50" 1.000E-01 0.500 F 0.098 0.186 20.0 V 0.70 -0.04 o 691 1.04 Yes Yes
2004KD1 O C 2011-11-28.13841 1.000E-05 04:18:38.800 1.500E-01 0.500 F -0.104 -0.630 +29° 34' 57.60" 1.000E-01 0.500 F 0.098 0.002 20.1 V 0.70 0.06 o 691 1.26 Yes Yes
2004KD1 O C 2011-11-28.15364 1.000E-05 04:18:37.420 1.500E-01 0.500 F -0.104 1.558 +29° 34' 50.10" 1.000E-01 0.500 F 0.098 0.634 19.8 V 0.70 -0.24 o 691 3.35 No Yes
2007LE O C 2011-11-28.31568 1.000E-05 05:52:46.740 1.500E-01 0.500 F -0.132 -0.257 +26° 02' 23.70" 1.000E-01 0.500 F 0.118 0.177 20.5 V 0.70 -0.73 o 691 0.63 Yes Yes
2007LE O C 2011-11-28.33377 1.000E-05 05:52:44.920 1.500E-01 0.500 F -0.132 -0.394 +26° 02' 49.60" 1.000E-01 0.500 F 0.118 -0.578 20.3 V 0.70 -0.93 o 691 1.41 Yes Yes
2007LE O C 2011-11-28.35224 1.000E-05 05:52:43.100 1.500E-01 0.500 F -0.132 0.031 +26° 03' 17.10" 1.000E-01 0.500 F 0.118 -0.252 20.3 V 0.70 -0.93 o 691 0.51 Yes Yes
2001KN20 O C H 2011-11-28.43118 1.000E-05 07:05:14.580 1.500E-01 0.500 F -0.129 0.187 +18° 35' 20.80" 1.000E-01 0.500 F 0.183 -0.804 o 691 1.65 Yes No
2001KN20 O C H 2011-11-28.44956 1.000E-05 07:05:13.630 1.500E-01 0.500 F -0.129 -0.249 +18° 35' 24.60" 1.000E-01 0.500 F 0.183 -0.659 o 691 1.41 Yes No
2001KN20 O C H 2011-11-28.46732 1.000E-05 07:05:12.740 1.500E-01 0.500 F -0.129 -0.274 +18° 35' 27.40" 1.000E-01 0.500 F 0.183 -1.377 o 691 2.81 Yes No
2011SL102 O C 2011-11-29.17175 1.000E-05 04:25:49.020 1.500E-01 0.500 F -0.046 -0.208 +28° 01' 52.50" 1.000E-01 0.500 F 0.206 -0.117 o 691 0.48 Yes No
2011SL102 O C 2011-11-29.18954 1.000E-05 04:25:48.720 1.500E-01 0.500 F -0.046 -0.165 +28° 02' 44.60" 1.000E-01 0.500 F 0.206 -0.201 o 691 0.52 Yes No
2011SL102 O C 2011-11-29.20733 1.000E-05 04:25:48.400 1.500E-01 0.500 F -0.046 -0.133 +28° 03' 36.70" 1.000E-01 0.500 F 0.206 -0.182 o 691 0.45 Yes No
2001YJ4 O C H 2011-11-29.28827 1.000E-05 05:44:54.280 1.500E-01 0.500 F -0.057 -0.324 +20° 33' 20.70" 1.000E-01 0.500 F 0.140 -0.230 20.4 V 0.70 0.61 o 691 0.80 Yes Yes
2001YJ4 O C H 2011-11-29.30369 1.000E-05 05:44:53.200 1.500E-01 0.500 F -0.057 -0.073 +20° 33' 16.80" 1.000E-01 0.500 F 0.140 -0.215 21.0 V 0.70 1.21 o 691 0.45 Yes Yes
2001XS30 O C H 2011-11-29.33940 1.000E-05 05:48:07.630 1.500E-01 0.500 F -0.109 0.096 +17° 21' 26.80" 1.000E-01 0.500 F 0.135 -1.039 o 691 2.09 Yes No
2001XS30 O C H 2011-11-29.37470 1.000E-05 05:48:02.270 1.500E-01 0.500 F -0.109 -0.404 +17° 21' 05.10" 1.000E-01 0.500 F 0.135 -1.460 o 691 3.04 Yes No
2008JF O C 2011-11-29.40194 1.000E-05 06:35:50.570 1.500E-01 0.500 F -0.114 -0.033 +17° 59' 07.00" 1.000E-01 0.500 F 0.171 -0.269 o 691 0.54 Yes No
2008JF O C 2011-11-29.42081 1.000E-05 06:35:48.970 1.500E-01 0.500 F -0.114 -0.244 +17° 59' 21.40" 1.000E-01 0.500 F 0.171 0.164 o 691 0.58 Yes No
2008JF O C 2011-11-29.43605 1.000E-05 06:35:47.690 1.500E-01 0.500 F -0.114 -0.243 +17° 59' 32.20" 1.000E-01 0.500 F 0.171 -0.295 o 691 0.76 Yes No
2001CP44 O C 2011-11-29.44839 1.000E-05 07:09:49.230 1.500E-01 0.500 F -0.128 -0.368 +22° 59' 54.80" 1.000E-01 0.500 F 0.263 0.008 o 691 0.74 Yes No
2001CP44 O C 2011-11-29.46616 1.000E-05 07:09:48.540 1.500E-01 0.500 F -0.128 0.030 +22° 59' 58.20" 1.000E-01 0.500 F 0.263 -0.146 o 691 0.30 Yes No
2001CP44 O C 2011-11-29.48393 1.000E-05 07:09:47.780 1.500E-01 0.500 F -0.128 -0.542 +23° 00' 01.80" 1.000E-01 0.500 F 0.263 -0.088 o 691 1.10 Yes No
2004DC O C H 2011-11-30.30251 1.000E-05 05:47:59.270 1.500E-01 0.500 F -0.108 -0.416 +25° 32' 21.80" 1.000E-01 0.500 F 0.145 -0.110 o 691 0.86 Yes No
2011WU95 O C 2011-11-30.30499 1.000E-05 05:50:36.110 1.500E-01 0.500 F -0.132 -0.824 +25° 41' 58.80" 1.000E-01 0.500 F 0.118 -0.065 20.8 V 0.70 -0.42 o 691 1.66 Yes Yes
2004DC O C H 2011-11-30.32030 1.000E-05 05:47:57.610 1.500E-01 0.500 F -0.108 0.590 +25° 32' 31.60" 1.000E-01 0.500 F 0.145 -0.403 o 691 1.43 Yes No
2011WU95 O C 2011-11-30.32279 1.000E-05 05:50:34.040 1.500E-01 0.500 F -0.132 -0.020 +25° 42' 03.90" 1.000E-01 0.500 F 0.118 -0.138 20.9 V 0.70 -0.32 o 691 0.28 Yes Yes
2004DC O C H 2011-11-30.33811 1.000E-05 05:47:55.840 1.500E-01 0.500 F -0.108 0.164 +25° 32' 42.00" 1.000E-01 0.500 F 0.145 -0.075 o 691 0.36 Yes No
2011WU95 O C 2011-11-30.34059 1.000E-05 05:50:31.930 1.500E-01 0.500 F -0.132 0.277 +25° 42' 08.90" 1.000E-01 0.500 F 0.118 -0.263 21.2 V 0.70 -0.02 o 691 0.77 Yes Yes
2007LE O C H 2011-11-30.37802 1.000E-05 05:49:17.840 1.500E-01 0.500 F -0.123 0.146 +26° 53' 54.50" 1.000E-01 0.500 F 0.160 -0.589 o 691 1.21 Yes No
2007LE O C H 2011-11-30.39333 1.000E-05 05:49:16.100 1.500E-01 0.500 F -0.123 -0.427 +26° 54' 18.70" 1.000E-01 0.500 F 0.160 0.228 20.8 V 0.70 -0.31 o 691 0.97 Yes Yes
1998KV2 O C 2011-11-30.51539 1.000E-05 11:51:43.230 1.500E-01 0.500 F 0.138 -0.289 +14° 57' 54.30" 1.000E-01 0.500 F 0.156 0.016 19.1 V 0.70 0.24 o 691 0.58 Yes Yes
1998KV2 O C 2011-11-30.52810 1.000E-05 11:51:46.600 1.500E-01 0.500 F 0.138 -0.291 +14° 57' 45.10" 1.000E-01 0.500 F 0.156 0.123 19.1 V 0.70 0.24 o 691 0.63 Yes Yes
1998KV2 O C 2011-11-30.54082 1.000E-05 11:51:49.970 1.500E-01 0.500 F 0.138 -0.294 +14° 57' 35.70" 1.000E-01 0.500 F 0.156 0.053 19.2 V 0.70 0.34 o 691 0.60 Yes Yes
2012FB57 O C 2011-12-25.23651 1.000E-05 07:05:07.050 1.500E-01 0.500 F -0.066 -0.014 +16° 00' 30.10" 1.000E-01 0.500 F 0.229 -0.104 19.5 V 0.70 0.17 o 691 0.21 Yes Yes
Ivar O C 2011-12-25.24147 1.000E-05 07:22:01.830 1.500E-01 0.500 F -0.161 -0.217 +15° 14' 06.40" 1.000E-01 0.500 F 0.179 0.012 16.5 V 0.70 0.10 o 691 0.44 Yes Yes
2012FB57 O C 2011-12-25.25454 1.000E-05 07:05:06.380 1.500E-01 0.500 F -0.066 0.077 +16° 00' 36.90" 1.000E-01 0.500 F 0.229 -0.252 19.5 V 0.70 0.17 o 691 0.53 Yes Yes
Ivar O C 2011-12-25.25950 1.000E-05 07:22:00.440 1.500E-01 0.500 F -0.161 -0.138 +15° 14' 10.90" 1.000E-01 0.500 F 0.179 0.003 16.3 V 0.70 -0.09 o 691 0.28 Yes Yes
2012FB57 O C 2011-12-25.27247 1.000E-05 07:05:05.700 1.500E-01 0.500 F -0.066 0.089 +16° 00' 43.90" 1.000E-01 0.500 F 0.229 -0.122 19.5 V 0.70 0.17 o 691 0.31 Yes Yes
Ivar O C 2011-12-25.27744 1.000E-05 07:21:58.990 1.500E-01 0.500 F -0.161 -0.988 +15° 14' 13.70" 1.000E-01 0.500 F 0.179 -1.671 16.1 V 0.70 -0.29 o 691 3.88 No Yes
1997XF11 O C 2011-12-25.48355 1.000E-05 09:02:14.720 1.500E-01 0.500 F 0.106 -0.297 +09° 38' 16.00" 1.000E-01 0.500 F 0.088 0.038 19.8 V 0.70 0.04 o 691 0.60 Yes Yes
1997XF11 O C 2011-12-25.50148 1.000E-05 09:02:13.470 1.500E-01 0.500 F 0.106 -0.793 +09° 38' 17.70" 1.000E-01 0.500 F 0.088 -0.053 20.4 V 0.70 0.64 o 691 1.59 Yes Yes
1997XF11 O C 2011-12-25.51943 1.000E-05 09:02:12.260 1.500E-01 0.500 F 0.106 -0.701 +09° 38' 19.60" 1.000E-01 0.500 F 0.088 0.062 20.3 V 0.70 0.54 o 691 1.41 Yes Yes
1990MF O C H 2011-12-26.23103 1.000E-05 07:32:48.390 1.500E-01 0.500 F -0.042 1.214 +18° 25' 10.90" 1.000E-01 0.500 F 0.160 -0.523 o 691 2.65 Yes No
1990MF O C H 2011-12-26.26741 1.000E-05 07:32:44.570 1.500E-01 0.500 F -0.042 -1.764 +18° 25' 18.10" 1.000E-01 0.500 F 0.160 -0.253 o 691 3.56 No No
2002QG24 O C H 2011-12-26.46744 1.000E-05 08:58:36.380 1.500E-01 0.500 F 0.028 0.310 +14° 45' 21.20" 1.000E-01 0.500 F 0.203 -0.597 o 691 1.35 Yes No
2002QG24 O C H 2011-12-26.48538 1.000E-05 08:58:35.850 1.500E-01 0.500 F 0.028 0.206 +14° 45' 24.60" 1.000E-01 0.500 F 0.203 -0.454 o 691 1.00 Yes No
2002QG24 O C H 2011-12-26.50333 1.000E-05 08:58:35.330 1.500E-01 0.500 F 0.028 0.236 +14° 45' 27.70" 1.000E-01 0.500 F 0.203 -0.601 o 691 1.30 Yes No
Dionysus O C H 2011-12-27.17697 1.000E-05 06:41:11.340 1.500E-01 0.500 F -0.058 0.666 +28° 23' 12.50" 1.000E-01 0.500 F 0.054 -0.083 o 691 1.34 Yes No
Dionysus O C H 2011-12-27.19478 1.000E-05 06:41:10.050 1.500E-01 0.500 F -0.058 1.078 +28° 23' 15.00" 1.000E-01 0.500 F 0.054 -1.298 o 691 3.37 No No
Dionysus O C H 2011-12-27.21261 1.000E-05 06:41:08.690 1.500E-01 0.500 F -0.058 0.616 +28° 23' 19.10" 1.000E-01 0.500 F 0.054 -0.902 o 691 2.19 Yes No
2000NF5 O C 2011-12-27.23425 1.000E-05 07:21:41.770 1.500E-01 0.500 F 0.015 -0.572 +22° 00' 47.80" 1.000E-01 0.500 F 0.245 -0.099 20.8 V 0.70 0.04 o 691 1.16 Yes Yes
Beltrovata O C 2011-12-27.23425 1.000E-05 07:19:38.360 1.500E-01 0.500 F -0.026 -0.356 +22° 53' 29.30" 1.000E-01 0.500 F 0.221 -0.025 18.7 V 0.70 0.43 o 691 0.72 Yes Yes
2004QQ O C 2011-12-27.23674 1.000E-05 07:29:21.770 1.500E-01 0.500 F -0.046 -0.227 +22° 21' 30.50" 1.000E-01 0.500 F 0.233 -0.010 20.3 V 0.70 -0.21 o 691 0.45 Yes Yes
Beltrovata O C 2011-12-27.25206 1.000E-05 07:19:36.850 1.500E-01 0.500 F -0.026 -0.209 +22° 53' 30.10" 1.000E-01 0.500 F 0.221 -0.054 18.5 V 0.70 0.23 o 691 0.43 Yes Yes
2000NF5 O C 2011-12-27.25206 1.000E-05 07:21:40.550 1.500E-01 0.500 F 0.015 -1.186 +22° 00' 50.10" 1.000E-01 0.500 F 0.245 0.146 20.7 V 0.70 -0.06 o 691 2.39 Yes Yes
2004QQ O C 2011-12-27.25455 1.000E-05 07:29:20.200 1.500E-01 0.500 F -0.046 -0.342 +22° 21' 32.50" 1.000E-01 0.500 F 0.233 0.003 20.4 V 0.70 -0.11 o 691 0.69 Yes Yes
Beltrovata O C 2011-12-27.26988 1.000E-05 07:19:35.330 1.500E-01 0.500 F -0.026 -0.147 +22° 53' 30.90" 1.000E-01 0.500 F 0.221 -0.063 18.3 V 0.70 0.03 o 691 0.32 Yes Yes
2000NF5 O C 2011-12-27.26988 1.000E-05 07:21:39.440 1.500E-01 0.500 F 0.015 -0.234 +22° 00' 52.00" 1.000E-01 0.500 F 0.245 0.003 20.6 V 0.70 -0.16 o 691 0.47 Yes Yes
2004QQ O C 2011-12-27.27236 1.000E-05 07:29:18.640 1.500E-01 0.500 F -0.046 -0.286 +22° 21' 34.40" 1.000E-01 0.500 F 0.233 -0.067 20.5 V 0.70 -0.01 o 691 0.59 Yes Yes
2011YQ1 O C H 2011-12-28.17632 1.000E-05 07:06:31.660 1.500E-01 0.500 F -0.134 1.093 +19° 07' 27.20" 1.000E-01 0.500 F 0.153 0.110 o 691 2.43 Yes No
2011YQ1 O C H 2011-12-28.19426 1.000E-05 07:06:31.160 1.500E-01 0.500 F -0.134 0.654 +19° 07' 23.60" 1.000E-01 0.500 F 0.153 0.434 o 691 1.75 Yes No
2011YQ1 O C H 2011-12-28.21220 1.000E-05 07:06:30.550 1.500E-01 0.500 F -0.134 -0.550 +19° 07' 18.50" 1.000E-01 0.500 F 0.153 -0.551 o 691 1.74 Yes No
2011QE38 O C H 2011-12-28.23260 1.000E-05 07:27:46.910 1.500E-01 0.500 F -0.045 0.277 +26° 35' 42.80" 1.000E-01 0.500 F 0.238 -0.756 o 691 1.66 Yes No
2011QE38 O C H 2011-12-28.25065 1.000E-05 07:27:45.050 1.500E-01 0.500 F -0.045 -0.556 +26° 35' 39.90" 1.000E-01 0.500 F 0.238 -0.948 o 691 2.33 Yes No
2011QE38 O C H 2011-12-28.26870 1.000E-05 07:27:43.280 1.500E-01 0.500 F -0.045 -0.023 +26° 35' 37.00" 1.000E-01 0.500 F 0.238 -1.039 o 691 2.15 Yes No
2011YU74 O C 2011-12-28.32409 1.000E-05 08:10:48.320 1.500E-01 0.500 F -0.017 -0.276 +19° 19' 57.80" 1.000E-01 0.500 F 0.249 0.231 o 691 0.72 Yes No
2011YU74 O C 2011-12-28.34204 1.000E-05 08:10:48.130 1.500E-01 0.500 F -0.017 -0.832 +19° 19' 47.30" 1.000E-01 0.500 F 0.249 -0.471 o 691 1.92 Yes No
2011YU74 O C 2011-12-28.35997 1.000E-05 08:10:48.020 1.500E-01 0.500 F -0.017 -0.135 +19° 19' 37.90" 1.000E-01 0.500 F 0.249 0.054 o 691 0.29 Yes No
2001AE2 O C 2011-12-28.39015 1.000E-05 08:31:10.020 1.500E-01 0.500 F -0.010 -0.068 +13° 58' 52.50" 1.000E-01 0.500 F 0.095 -0.125 o 691 0.29 Yes No
2012AG7 O C 2011-12-28.39015 1.000E-05 08:32:39.460 1.500E-01 0.500 F 0.048 -0.318 +14° 43' 40.30" 1.000E-01 0.500 F 0.082 -0.147 o 691 0.86 Yes No
2001AE2 O C 2011-12-28.40809 1.000E-05 08:31:09.160 1.500E-01 0.500 F -0.010 -0.379 +13° 58' 53.30" 1.000E-01 0.500 F 0.095 -0.255 o 691 0.92 Yes No
2012AG7 O C 2011-12-28.40809 1.000E-05 08:32:38.450 1.500E-01 0.500 F 0.048 0.193 +14° 43' 36.00" 1.000E-01 0.500 F 0.082 0.088 o 691 0.52 Yes No
2001AE2 O C 2011-12-28.42603 1.000E-05 08:31:08.340 1.500E-01 0.500 F -0.010 -0.103 +13° 58' 54.20" 1.000E-01 0.500 F 0.095 -0.239 o 691 0.52 Yes No
2012AG7 O C 2011-12-28.42603 1.000E-05 08:32:37.400 1.500E-01 0.500 F 0.048 0.125 +14° 43' 31.40" 1.000E-01 0.500 F 0.082 0.060 o 691 0.34 Yes No
2001WC47 O C 2011-12-28.44606 1.000E-05 09:08:32.520 1.500E-01 0.500 F 0.057 -0.173 +19° 02' 36.00" 1.000E-01 0.500 F 0.209 -0.108 o 691 0.41 Yes No
2001WC47 O C 2011-12-28.46401 1.000E-05 09:08:33.420 1.500E-01 0.500 F 0.057 -0.153 +19° 02' 41.50" 1.000E-01 0.500 F 0.209 -0.159 o 691 0.44 Yes No
2001WC47 O C 2011-12-28.48196 1.000E-05 09:08:34.320 1.500E-01 0.500 F 0.057 -0.188 +19° 02' 46.90" 1.000E-01 0.500 F 0.209 -0.237 o 691 0.61 Yes No
Ivar O C 2011-12-29.23101 1.000E-05 07:16:52.440 1.500E-01 0.500 F -0.129 -0.068 +15° 31' 01.30" 1.000E-01 0.500 F 0.223 -0.041 16.5 V 0.70 0.16 o 691 0.16 Yes Yes
2011XE1 O C 2011-12-29.23867 1.000E-05 07:18:29.410 1.500E-01 0.500 F -0.202 0.014 +13° 35' 49.30" 1.000E-01 0.500 F 0.170 -0.018 17.9 V 0.70 0.02 o 691 0.05 Yes Yes
Ivar O C 2011-12-29.24896 1.000E-05 07:16:50.980 1.500E-01 0.500 F -0.129 -0.215 +15° 31' 06.10" 1.000E-01 0.500 F 0.223 -0.049 16.3 V 0.70 -0.04 o 691 0.44 Yes Yes
2011XE1 O C 2011-12-29.25663 1.000E-05 07:18:28.340 1.500E-01 0.500 F -0.202 1.104 +13° 35' 05.20" 1.000E-01 0.500 F 0.170 0.060 17.8 V 0.70 -0.08 o 691 2.23 Yes Yes
Ivar O C 2011-12-29.26692 1.000E-05 07:16:49.530 1.500E-01 0.500 F -0.129 -0.168 +15° 31' 10.90" 1.000E-01 0.500 F 0.223 -0.047 16.2 V 0.70 -0.14 o 691 0.35 Yes Yes
2011XE1 O C 2011-12-29.27459 1.000E-05 07:18:27.100 1.500E-01 0.500 F -0.202 -0.163 +13° 34' 20.90" 1.000E-01 0.500 F 0.170 -0.005 18.0 V 0.70 0.12 o 691 0.33 Yes Yes
2011YH6 O C 2011-12-29.29903 1.000E-05 07:39:16.560 1.500E-01 0.500 F -0.095 -0.408 +25° 12' 40.10" 1.000E-01 0.500 F 0.163 -0.327 19.6 V 0.70 -0.07 o 691 1.06 Yes Yes
2011YH6 O C 2011-12-29.31708 1.000E-05 07:39:16.200 1.500E-01 0.500 F -0.095 -0.304 +25° 11' 36.90" 1.000E-01 0.500 F 0.163 -0.054 19.8 V 0.70 0.13 o 691 0.63 Yes Yes
2011YH6 O C 2011-12-29.33861 1.000E-05 07:39:15.760 1.500E-01 0.500 F -0.095 -0.171 +25° 10' 21.00" 1.000E-01 0.500 F 0.163 -0.048 19.6 V 0.70 -0.07 o 691 0.36 Yes Yes
2001CP44 O C 2011-12-30.15563 1.000E-05 06:42:20.930 1.500E-01 0.500 F 0.055 -0.106 +24° 47' 07.50" 1.000E-01 0.500 F 0.171 -0.122 19.1 V 0.70 0.29 o 691 0.32 Yes Yes
2001CP44 O C 2011-12-30.17366 1.000E-05 06:42:19.790 1.500E-01 0.500 F 0.055 -0.239 +24° 47' 11.10" 1.000E-01 0.500 F 0.171 -0.129 19.0 V 0.70 0.19 o 691 0.54 Yes Yes
2001CP44 O C 2011-12-30.19141 1.000E-05 06:42:18.690 1.500E-01 0.500 F 0.055 -0.040 +24° 47' 14.50" 1.000E-01 0.500 F 0.171 -0.269 19.0 V 0.70 0.19 o 691 0.54 Yes Yes
2003CY18 O C H 2011-12-30.19884 1.000E-05 07:10:27.540 1.500E-01 0.500 F -0.057 0.563 +19° 40' 04.20" 1.000E-01 0.500 F 0.122 -0.905 21.2 V 0.70 0.75 o 691 2.13 Yes Yes
2003CY18 O C H 2011-12-30.21658 1.000E-05 07:10:25.630 1.500E-01 0.500 F -0.057 0.251 +19° 40' 11.50" 1.000E-01 0.500 F 0.122 -0.383 o 691 0.92 Yes No
1990MF O C H 2011-12-30.22155 1.000E-05 07:26:14.110 1.500E-01 0.500 F -0.052 -0.545 +18° 37' 28.20" 1.000E-01 0.500 F 0.145 -0.732 o 691 1.83 Yes No
2003CY18 O C H 2011-12-30.23433 1.000E-05 07:10:23.690 1.500E-01 0.500 F -0.057 -0.410 +19° 40' 18.80" 1.000E-01 0.500 F 0.122 0.156 21.2 V 0.70 0.75 o 691 0.88 Yes Yes
1990MF O C H 2011-12-30.23929 1.000E-05 07:26:12.290 1.500E-01 0.500 F -0.015 -0.669 +18° 37' 31.70" 1.000E-01 0.500 F 0.144 -0.695 o 691 1.93 Yes No
2002QG24 O C H 2011-12-30.43509 1.000E-05 08:56:32.610 1.500E-01 0.500 F 0.012 0.860 +14° 58' 56.50" 1.000E-01 0.500 F 0.182 -0.849 o 691 2.43 Yes No
2002QG24 O C H 2011-12-30.45283 1.000E-05 08:56:31.870 1.500E-01 0.500 F 0.012 -0.242 +14° 59' 01.50" 1.000E-01 0.500 F 0.182 0.153 21.7 V 0.70 0.31 o 691 0.57 Yes Yes
2002QG24 O C H 2011-12-30.47057 1.000E-05 08:56:31.260 1.500E-01 0.500 F 0.012 0.532 +14° 59' 05.20" 1.000E-01 0.500 F 0.182 -0.133 21.3 V 0.70 -0.09 o 691 1.10 Yes Yes
2001FZ57 O C H 2011-12-30.48951 1.000E-05 14:00:01.560 1.500E-01 0.500 F 0.268 0.055 +03° 03' 51.90" 1.000E-01 0.500 F 0.177 -0.516 o 691 1.04 Yes No
2001FZ57 O C H 2011-12-30.50221 1.000E-05 14:00:02.620 1.500E-01 0.500 F 0.268 0.333 +03° 03' 45.90" 1.000E-01 0.500 F 0.177 -0.831 o 691 1.79 Yes No
2001FZ57 O C H 2011-12-30.51488 1.000E-05 14:00:03.650 1.500E-01 0.500 F 0.268 0.225 +03° 03' 40.60" 1.000E-01 0.500 F 0.177 -0.459 o 691 1.03 Yes No
2000UV16 O C 2011-12-31.14228 1.000E-05 06:18:25.900 1.500E-01 0.500 F 0.018 -0.056 +29° 39' 10.90" 1.000E-01 0.500 F 0.231 0.032 20.6 V 0.70 0.23 o 691 0.13 Yes Yes
2000UV16 O C 2011-12-31.15750 1.000E-05 06:18:24.570 1.500E-01 0.500 F 0.018 -0.187 +29° 39' 10.20" 1.000E-01 0.500 F 0.231 0.011 20.5 V 0.70 0.13 o 691 0.38 Yes Yes
2000UV16 O C 2011-12-31.17273 1.000E-05 06:18:23.270 1.500E-01 0.500 F 0.018 0.117 +29° 39' 09.50" 1.000E-01 0.500 F 0.231 0.008 20.2 V 0.70 -0.17 o 691 0.24 Yes Yes
2000PQ9 O C H 2011-12-31.19641 1.000E-05 06:55:32.350 1.500E-01 0.500 F -0.093 -0.126 +29° 06' 03.60" 1.000E-01 0.500 F 0.215 -0.129 o 691 0.36 Yes No
Dionysus O C H 2011-12-31.19905 1.000E-05 06:36:15.700 1.500E-01 0.500 F -0.043 0.347 +28° 36' 03.80" 1.000E-01 0.500 F 0.072 0.368 o 691 1.01 Yes No
2000PQ9 O C H 2011-12-31.21163 1.000E-05 06:55:30.830 1.500E-01 0.500 F -0.093 -0.852 +29° 06' 01.10" 1.000E-01 0.500 F 0.215 -0.852 o 691 2.41 Yes No
Dionysus O C H 2011-12-31.21427 1.000E-05 06:36:14.540 1.500E-01 0.500 F -0.043 0.060 +28° 36' 06.20" 1.000E-01 0.500 F 0.072 -0.080 o 691 0.20 Yes No
2000PQ9 O C H 2011-12-31.22685 1.000E-05 06:55:29.420 1.500E-01 0.500 F -0.093 -0.108 +29° 05' 59.30" 1.000E-01 0.500 F 0.215 -0.857 o 691 1.73 Yes No
Dionysus O C H 2011-12-31.22949 1.000E-05 06:36:13.470 1.500E-01 0.500 F -0.043 0.975 +28° 36' 08.80" 1.000E-01 0.500 F 0.072 -0.316 o 691 2.05 Yes No
Beltrovata O C 2011-12-31.24439 1.000E-05 07:13:59.680 1.500E-01 0.500 F -0.053 -0.001 +22° 55' 46.70" 1.000E-01 0.500 F 0.259 -0.086 18.3 V 0.70 0.13 o 691 0.17 Yes Yes
2004QQ O C H 2011-12-31.24687 1.000E-05 07:23:32.730 1.500E-01 0.500 F -0.022 -0.136 +22° 28' 14.50" 1.000E-01 0.500 F 0.236 0.123 20.7 V 0.70 0.27 o 691 0.37 Yes Yes
Beltrovata O C 2011-12-31.26219 1.000E-05 07:13:58.130 1.500E-01 0.500 F -0.053 0.002 +22° 55' 47.30" 1.000E-01 0.500 F 0.259 -0.117 18.2 V 0.70 0.03 o 691 0.23 Yes Yes
2004QQ O C H 2011-12-31.26467 1.000E-05 07:23:31.100 1.500E-01 0.500 F -0.022 -0.729 +22° 28' 15.80" 1.000E-01 0.500 F 0.236 -0.370 20.7 V 0.70 0.27 o 691 1.64 Yes Yes
2011YQ10 O C H 2011-12-31.26731 1.000E-05 07:04:31.540 1.500E-01 0.500 F -0.096 -0.083 +20° 27' 34.00" 1.000E-01 0.500 F 0.136 0.043 20.5 V 0.70 0.33 o 691 0.19 Yes Yes
Beltrovata O C 2011-12-31.27998 1.000E-05 07:13:56.570 1.500E-01 0.500 F -0.053 -0.116 +22° 55' 47.90" 1.000E-01 0.500 F 0.259 -0.125 18.5 V 0.70 0.33 o 691 0.34 Yes Yes
2011YQ10 O C H 2011-12-31.28511 1.000E-05 07:04:29.690 1.500E-01 0.500 F -0.096 -0.323 +20° 27' 39.00" 1.000E-01 0.500 F 0.136 -0.578 20.6 V 0.70 0.43 o 691 1.33 Yes Yes
2008BS2 O C 2011-12-31.40529 1.000E-05 08:30:00.220 1.500E-01 0.500 F 0.047 -0.526 +26° 38' 26.40" 1.000E-01 0.500 F 0.244 0.244 21.0 V 0.70 -0.32 o 691 1.17 Yes Yes
2011YM63 O C 2011-12-31.41796 1.000E-05 08:33:30.490 1.500E-01 0.500 F 0.057 -0.263 +23° 43' 30.40" 1.000E-01 0.500 F 0.225 0.088 20.4 V 0.70 0.46 o 691 0.57 Yes Yes
2008BS2 O C 2011-12-31.42057 1.000E-05 08:29:58.780 1.500E-01 0.500 F 0.047 -0.267 +26° 38' 27.90" 1.000E-01 0.500 F 0.244 -0.080 20.9 V 0.70 -0.42 o 691 0.56 Yes Yes
2011YM63 O C 2011-12-31.43324 1.000E-05 08:33:33.850 1.500E-01 0.500 F 0.057 -0.553 +23° 43' 16.70" 1.000E-01 0.500 F 0.225 0.081 20.4 V 0.70 0.46 o 691 1.14 Yes Yes
2008BS2 O C 2011-12-31.43585 1.000E-05 08:29:57.330 1.500E-01 0.500 F 0.047 -0.147 +26° 38' 29.40" 1.000E-01 0.500 F 0.244 -0.382 21.1 V 0.70 -0.22 o 691 0.82 Yes Yes
2011YM63 O C 2011-12-31.44852 1.000E-05 08:33:37.240 1.500E-01 0.500 F 0.022 -0.500 +23° 43' 03.10" 1.000E-01 0.500 F 0.258 0.285 20.5 V 0.70 0.57 o 691 1.17 Yes Yes
Ivar O C 2012-01-02.21067 1.000E-05 07:11:33.330 1.500E-01 0.500 F -0.052 -0.126 +15° 48' 56.40" 1.000E-01 0.500 F 0.208 -0.033 16.3 V 0.70 0.00 o 691 0.26 Yes Yes
Ivar O C 2012-01-02.22842 1.000E-05 07:11:31.860 1.500E-01 0.500 F -0.052 -0.169 +15° 49' 01.50" 1.000E-01 0.500 F 0.208 0.064 16.4 V 0.70 0.10 o 691 0.36 Yes Yes
Ivar O C 2012-01-02.24618 1.000E-05 07:11:30.400 1.500E-01 0.500 F -0.052 -0.018 +15° 49' 06.50" 1.000E-01 0.500 F 0.208 0.071 16.2 V 0.70 -0.10 o 691 0.15 Yes Yes
1998KV2 O C 2012-01-02.49229 1.000E-05 14:00:31.610 1.500E-01 0.500 F 0.167 0.022 +07° 34' 37.40" 1.000E-01 0.500 F 0.111 0.183 19.2 V 0.70 0.27 o 691 0.37 Yes Yes
1998KV2 O C 2012-01-02.50494 1.000E-05 14:00:34.100 1.500E-01 0.500 F 0.167 0.273 +07° 34' 27.70" 1.000E-01 0.500 F 0.111 0.242 19.0 V 0.70 0.07 o 691 0.73 Yes Yes
1998KV2 O C 2012-01-02.51761 1.000E-05 14:00:36.560 1.500E-01 0.500 F 0.167 0.065 +07° 34' 17.70" 1.000E-01 0.500 F 0.111 0.023 19.2 V 0.70 0.27 o 691 0.14 Yes Yes
2001CP44 O C 2012-01-03.19114 1.000E-05 06:38:11.080 1.500E-01 0.500 F 0.015 -0.272 +24° 59' 50.70" 1.000E-01 0.500 F 0.188 -0.039 19.1 V 0.70 0.24 o 691 0.55 Yes Yes
2001CP44 O C 2012-01-03.20891 1.000E-05 06:38:09.970 1.500E-01 0.500 F 0.015 -0.212 +24° 59' 54.00" 1.000E-01 0.500 F 0.188 -0.080 19.1 V 0.70 0.24 o 691 0.45 Yes Yes
2001CP44 O C 2012-01-03.22669 1.000E-05 06:38:08.900 1.500E-01 0.500 F 0.015 0.419 +24° 59' 55.90" 1.000E-01 0.500 F 0.188 -1.510 18.9 V 0.70 0.04 o 691 3.14 Yes Yes
2012FB57 O C 2012-01-03.24183 1.000E-05 06:59:00.410 1.500E-01 0.500 F -0.037 0.142 +17° 10' 45.40" 1.000E-01 0.500 F 0.248 0.026 19.1 V 0.70 0.33 o 691 0.30 Yes Yes
2012FB57 O C 2012-01-03.24556 1.000E-05 06:59:00.190 1.500E-01 0.500 F -0.037 -0.079 +17° 10' 47.60" 1.000E-01 0.500 F 0.248 0.060 19.1 V 0.70 0.33 o 691 0.21 Yes Yes
2012FB57 O C 2012-01-03.26081 1.000E-05 06:58:59.360 1.500E-01 0.500 F -0.037 0.058 +17° 10' 56.30" 1.000E-01 0.500 F 0.248 -0.073 19.0 V 0.70 0.23 o 691 0.19 Yes Yes
2002QG24 O C 2012-01-03.46948 1.000E-05 08:53:53.400 1.500E-01 0.500 F 0.012 -0.534 +15° 15' 40.80" 1.000E-01 0.500 F 0.182 0.227 21.3 V 0.70 0.07 o 691 1.16 Yes Yes
2002QG24 O C 2012-01-03.48724 1.000E-05 08:53:52.620 1.500E-01 0.500 F 0.012 -0.126 +15° 15' 45.10" 1.000E-01 0.500 F 0.182 -0.198 21.1 V 0.70 -0.13 o 691 0.47 Yes Yes
2002QG24 O C 2012-01-03.50499 1.000E-05 08:53:51.790 1.500E-01 0.500 F 0.012 -0.473 +15° 15' 49.90" 1.000E-01 0.500 F 0.182 -0.109 21.1 V 0.70 -0.13 o 691 0.98 Yes Yes
Beltrovata O C 2012-01-04.23304 1.000E-05 07:08:20.140 1.500E-01 0.612 F -0.087 -0.126 +22° 57' 21.30" 1.000E-01 0.612 F 0.244 -0.056 o 691 0.23 Yes No
2000NF5 O C H 2012-01-04.23553 1.000E-05 07:12:46.650 1.500E-01 0.500 F -0.053 -1.298 +22° 15' 07.50" 1.000E-01 0.500 F 0.259 0.204 o 691 2.63 Yes No
Beltrovata O C 2012-01-04.23553 1.000E-05 07:08:19.910 1.500E-01 0.612 F -0.087 -0.315 +22° 57' 21.50" 1.000E-01 0.612 F 0.244 0.083 o 691 0.53 Yes No
2004QQ O C H 2012-01-04.23801 1.000E-05 07:17:42.890 1.500E-01 0.500 F -0.026 -0.640 +22° 34' 12.70" 1.000E-01 0.500 F 0.221 -0.449 20.7 V 0.70 0.36 o 691 1.56 Yes Yes
Beltrovata O C 2012-01-04.25127 1.000E-05 07:08:18.640 1.500E-01 0.612 F -0.087 1.047 +22° 57' 21.10" 1.000E-01 0.612 F 0.244 -0.689 o 691 2.05 Yes No
2000NF5 O C H 2012-01-04.25376 1.000E-05 07:12:45.460 1.500E-01 0.500 F -0.053 -0.213 +22° 15' 09.40" 1.000E-01 0.500 F 0.259 0.160 20.5 V 0.70 -0.03 o 691 0.53 Yes Yes
Beltrovata O C 2012-01-04.25376 1.000E-05 07:08:18.330 1.500E-01 0.612 F -0.087 -0.243 +22° 57' 21.80" 1.000E-01 0.612 F 0.244 -0.046 o 691 0.40 Yes No
2004QQ O C H 2012-01-04.25624 1.000E-05 07:17:41.280 1.500E-01 0.500 F -0.026 -0.443 +22° 34' 14.30" 1.000E-01 0.500 F 0.221 -0.462 20.5 V 0.70 0.16 o 691 1.28 Yes Yes
Beltrovata O C 2012-01-04.26656 1.000E-05 07:08:17.230 1.500E-01 0.612 F -0.087 -0.047 +22° 57' 22.00" 1.000E-01 0.612 F 0.244 -0.133 o 691 0.23 Yes No
2000NF5 O C H 2012-01-04.26904 1.000E-05 07:12:44.380 1.500E-01 0.500 F -0.053 -0.434 +22° 15' 11.20" 1.000E-01 0.500 F 0.259 0.342 20.5 V 0.70 -0.03 o 691 1.11 Yes Yes
Beltrovata O C 2012-01-04.26904 1.000E-05 07:08:17.010 1.500E-01 0.612 F -0.087 -0.102 +22° 57' 22.10" 1.000E-01 0.612 F 0.244 -0.088 o 691 0.22 Yes No
2004QQ O C H 2012-01-04.27153 1.000E-05 07:17:39.920 1.500E-01 0.500 F -0.026 -0.394 +22° 34' 16.40" 1.000E-01 0.500 F 0.221 0.300 20.5 V 0.70 0.16 o 691 0.99 Yes Yes
2011YH6 O C 2012-01-04.28394 1.000E-05 07:38:12.500 1.500E-01 0.500 F -0.032 -0.157 +19° 46' 58.30" 1.000E-01 0.500 F 0.271 0.457 o 691 0.98 Yes No
2011YH6 O C 2012-01-04.30171 1.000E-05 07:38:12.050 1.500E-01 0.500 F -0.032 0.368 +19° 46' 04.90" 1.000E-01 0.500 F 0.271 -0.461 o 691 1.19 Yes No
2011YH6 O C 2012-01-04.31951 1.000E-05 07:38:11.500 1.500E-01 0.500 F -0.032 -0.411 +19° 45' 12.40" 1.000E-01 0.500 F 0.271 -0.295 o 691 1.02 Yes No
2008BS2 O C 2012-01-04.39570 1.000E-05 08:23:34.220 1.500E-01 0.500 F 0.047 -0.804 +26° 45' 56.90" 1.000E-01 0.500 F 0.204 -0.711 o 691 2.15 Yes No
2006MJ10 O C 2012-01-04.40315 1.000E-05 08:45:46.590 1.500E-01 0.500 F -0.041 1.848 +26° 02' 54.90" 1.000E-01 0.500 F 0.332 1.325 o 691 4.36 No No
2008BS2 O C 2012-01-04.41349 1.000E-05 08:23:32.420 1.500E-01 0.500 F 0.047 -0.425 +26° 45' 58.90" 1.000E-01 0.500 F 0.204 -0.490 o 691 1.30 Yes No
2006MJ10 O C 2012-01-04.42094 1.000E-05 08:45:41.410 1.500E-01 0.500 F -0.041 -0.253 +26° 05' 22.20" 1.000E-01 0.500 F 0.332 0.117 o 691 0.58 Yes No
2008BS2 O C 2012-01-04.43128 1.000E-05 08:23:30.600 1.500E-01 0.500 F 0.047 -0.324 +26° 46' 01.20" 1.000E-01 0.500 F 0.204 0.064 o 691 0.67 Yes No
2006MJ10 O C 2012-01-04.43874 1.000E-05 08:45:36.380 1.500E-01 0.500 F -0.041 -0.362 +26° 07' 50.50" 1.000E-01 0.500 F 0.332 0.114 o 691 0.79 Yes No
2001AE2 O C 2012-01-05.37723 1.000E-05 08:23:56.960 1.500E-01 0.500 F -0.055 0.458 +14° 15' 37.90" 1.000E-01 0.500 F 0.168 -0.352 20.0 V 0.70 1.19 o 691 1.16 Yes Yes
2001AE2 O C 2012-01-05.39500 1.000E-05 08:23:55.560 1.500E-01 0.500 F -0.055 -0.128 +14° 15' 41.60" 1.000E-01 0.500 F 0.168 -0.139 19.0 V 0.70 0.19 o 691 0.38 Yes Yes
2001AE2 O C 2012-01-05.41278 1.000E-05 08:23:54.190 1.500E-01 0.500 F -0.055 -0.285 +14° 15' 45.10" 1.000E-01 0.500 F 0.168 -0.078 19.0 V 0.70 0.19 o 691 0.59 Yes Yes
2001WC47 O C 2012-01-14.28656 1.000E-05 09:20:28.670 1.500E-01 0.500 F 0.066 -0.384 +21° 37' 18.20" 1.000E-01 0.500 F 0.271 0.490 17.5 V 0.70 0.01 o 691 1.25 Yes Yes
2001WC47 O C 2012-01-14.30433 1.000E-05 09:20:28.930 1.500E-01 0.500 F 0.066 -0.288 +21° 37' 32.80" 1.000E-01 0.500 F 0.271 0.008 17.7 V 0.70 0.21 o 691 0.58 Yes Yes
2001WC47 O C 2012-01-14.32210 1.000E-05 09:20:29.170 1.500E-01 0.500 F 0.066 -0.291 +21° 37' 48.00" 1.000E-01 0.500 F 0.271 0.226 17.5 V 0.70 0.01 o 691 0.74 Yes Yes
2001WC47 O C 2012-01-18.27383 1.000E-05 09:21:48.730 1.500E-01 0.500 F 0.072 -0.849 +22° 36' 01.40" 1.000E-01 0.500 F 0.281 0.326 17.2 V 0.70 -0.01 o 691 1.82 Yes Yes
2015YL10 O C 2012-01-18.27647 1.000E-05 09:06:13.770 1.500E-01 0.500 F 0.010 -0.532 +21° 13' 21.10" 1.000E-01 0.500 F 0.186 0.146 20.9 V 0.70 -0.20 o 691 1.12 Yes Yes
2001WC47 O C 2012-01-18.29629 1.000E-05 09:21:48.870 1.500E-01 0.500 F 0.072 -0.157 +22° 36' 23.40" 1.000E-01 0.500 F 0.281 0.047 17.4 V 0.70 0.19 o 691 0.33 Yes Yes
2015YL10 O C 2012-01-18.29976 1.000E-05 09:06:10.700 1.500E-01 0.500 F 0.010 -0.387 +21° 13' 01.50" 1.000E-01 0.500 F 0.186 0.127 20.7 V 0.70 -0.40 o 691 0.83 Yes Yes
2001WC47 O C 2012-01-18.31233 1.000E-05 09:21:48.910 1.500E-01 0.500 F 0.072 -0.303 +22° 36' 39.30" 1.000E-01 0.500 F 0.281 0.146 17.4 V 0.70 0.19 o 691 0.67 Yes Yes
2015YL10 O C 2012-01-18.31496 1.000E-05 09:06:08.680 1.500E-01 0.500 F 0.010 -0.481 +21° 12' 48.40" 1.000E-01 0.500 F 0.186 -0.161 21.0 V 0.70 -0.10 o 691 1.02 Yes Yes
1999RD32 O C 2012-01-18.40978 1.000E-05 10:12:38.320 1.500E-01 0.500 F 0.160 -0.507 +10° 31' 09.10" 1.000E-01 0.500 F 0.050 -0.133 18.1 V 0.70 0.36 o 691 1.05 Yes Yes
1999RD32 O C 2012-01-18.42772 1.000E-05 10:12:37.880 1.500E-01 0.500 F 0.160 -0.015 +10° 31' 04.30" 1.000E-01 0.500 F 0.050 -0.033 18.0 V 0.70 0.26 o 691 0.07 Yes Yes
1999RD32 O C 2012-01-18.44566 1.000E-05 10:12:37.400 1.500E-01 0.500 F 0.160 -0.111 +10° 30' 59.40" 1.000E-01 0.500 F 0.050 -0.012 18.0 V 0.70 0.27 o 691 0.22 Yes Yes
2002QG24 O C 2012-01-19.18359 1.000E-05 08:38:33.810 1.500E-01 0.500 F -0.082 -0.173 +16° 46' 19.20" 1.000E-01 0.500 F 0.125 0.290 20.6 V 0.70 0.04 o 691 0.68 Yes Yes
2002QG24 O C 2012-01-19.20152 1.000E-05 08:38:32.470 1.500E-01 0.500 F -0.082 -0.461 +16° 46' 26.40" 1.000E-01 0.500 F 0.125 -0.048 20.6 V 0.70 0.04 o 691 0.93 Yes Yes
2002QG24 O C 2012-01-19.21946 1.000E-05 08:38:31.180 1.500E-01 0.500 F -0.082 0.045 +16° 46' 33.90" 1.000E-01 0.500 F 0.125 -0.079 20.7 V 0.70 0.15 o 691 0.18 Yes Yes
2011YM63 O C 2012-01-19.36175 1.000E-05 10:07:40.760 1.500E-01 0.500 F 0.062 -0.317 +15° 12' 47.80" 1.000E-01 0.500 F 0.178 0.078 19.5 V 0.70 0.37 o 691 0.66 Yes Yes
2011YM63 O C 2012-01-19.37970 1.000E-05 10:07:46.660 1.500E-01 0.500 F 0.062 -0.250 +15° 12' 03.70" 1.000E-01 0.500 F 0.178 0.081 19.2 V 0.70 0.07 o 691 0.53 Yes Yes
2011YM63 O C 2012-01-19.39764 1.000E-05 10:07:52.540 1.500E-01 0.500 F 0.062 -0.335 +15° 11' 19.40" 1.000E-01 0.500 F 0.178 0.062 19.4 V 0.70 0.27 o 691 0.69 Yes Yes
Albert O C H 2012-01-19.49295 1.000E-05 10:41:54.010 1.500E-01 0.500 F 0.165 0.445 +00° 02' 04.50" 1.000E-01 0.500 F 0.170 -0.714 o 691 1.68 Yes No
2012BN11 O C 2012-01-19.49792 1.000E-05 10:59:56.670 1.500E-01 0.500 F 0.118 -0.284 -00° 04' 28.20" 1.000E-01 0.500 F 0.136 -0.290 20.6 V 0.70 0.11 o 691 0.82 Yes Yes
Albert O C H 2012-01-19.51088 1.000E-05 10:41:53.460 1.500E-01 0.500 F 0.165 0.229 +00° 02' 07.20" 1.000E-01 0.500 F 0.170 -0.634 o 691 1.35 Yes No

[1-200] [201-400] [401-600] [601-800] [801-1000] [1001-1200] [1201-1400] [1401-1600] [1601-1800] [1801-2000] [2001-2200] [2201-2400] [2401-2600] [2601-2800] [2801-3000] [3001-3200] [3201-3400] [3401-3600] [3601-3800] [3801-4000] [4001-4200] [4201-4400] [4401-4600] [4601-4800] [4801-5000] [5001-5200] [5201-5400] [5401-5600] [5601-5800] [5801-6000] [6001-6200] [6201-6400] [6401-6600] [6601-6800] [6801-7000] [7001-7200] [7201-7400] [7401-7600] [7601-7800] [7801-8000] [8001-8200] [8201-8400] [8401-8600] [8601-8800] [8801-9000] [9001-9200] [9201-9400] [9401-9600] [9601-9800] [9801-10000] [10001-10200] [10201-10400] [10401-10600] [10601-10800] [10801-11000] [11001-11200] [11201-11400] [11401-11600] [11601-11800] [11801-12000] [12001-12200] [12201-12400] [12401-12600] [12601-12800] [12801-13000] [13001-13200] [13201-13400] [13401-13600] [13601-13800] [13801-14000] [14001-14200] [14201-14400] [14401-14600] [14601-14800] [14801-15000] [15001-15200] [15201-15400] [15401-15600] [15601-15800] [15801-16000] [16001-16200] [16201-16400] [16401-16600] [16601-16800] [16801-17000] [17001-17200] [17201-17400] [17401-17600] [17601-17800] [17801-18000] [18001-18200] [18201-18400] [18401-18600] [18601-18800] [18801-19000] [19001-19200] [19201-19400] [19401-19600] [19601-19800] [19801-20000] [20001-20200] [20201-20400] [20401-20600] [20601-20800] [20801-21000] [21001-21200] [21201-21400] [21401-21600] [21601-21800] [21801-22000] [22001-22200] [22201-22400] [22401-22600] [22601-22800] [22801-23000] [23001-23200] [23201-23400] [23401-23600] [23601-23800] [23801-24000] [24001-24200] [24201-24400] [24401-24600] [24601-24800] [24801-25000] [25001-25200] [25201-25400] [25401-25600] [25601-25800] [25801-26000] [26001-26200] [26201-26400] [26401-26600] [26601-26800] [26801-27000] [27001-27200] [27201-27400] [27401-27600] [27601-27800] [27801-28000] [28001-28200] [28201-28400] [28401-28600] [28601-28800] [28801-29000] [29001-29200] [29201-29400] [29401-29600] [29601-29800] [29801-30000] [30001-30200] [30201-30400] [30401-30600] [30601-30800] [30801-31000] [31001-31200] [31201-31400] [31401-31600] [31601-31800] [31801-32000] [32001-32200] [32201-32400] [32401-32600] [32601-32800] [32801-33000] [33001-33200] [33201-33400] [33401-33600] [33601-33800] [33801-34000] [34001-34200] [34201-34400] [34401-34600] [34601-34800] [34801-35000] [35001-35200] [35201-35400] [35401-35600] [35601-35800] [35801-36000] [36001-36200] [36201-36400] [36401-36600] [36601-36800] [36801-37000] [37001-37200] [37201-37400] [37401-37600] [37601-37800] [37801-38000] [38001-38200] [38201-38400] [38401-38600] [38601-38800] [38801-39000] [39001-39200] [39201-39400] [39401-39600] [39601-39800] [39801-40000] [40001-40200] [40201-40400] [40401-40600] [40601-40800] [40801-41000] [41001-41200] [41201-41400] [41401-41600] [41601-41800] [41801-42000] [42001-42200] [42201-42400] [42401-42600] [42601-42800] [42801-43000] [43001-43200] [43201-43400] [43401-43600] [43601-43800] [43801-44000] [44001-44200] [44201-44400] [44401-44600] [44601-44800] [44801-45000] [45001-45200] [45201-45400] [45401-45600] [45601-45800] [45801-46000] [46001-46200] [46201-46400] [46401-46600] [46601-46800] [46801-47000] [47001-47200] [47201-47400] [47401-47600] [47601-47800] [47801-48000] [48001-48200] [48201-48400] [48401-48600] [48601-48800] [48801-49000] [49001-49200] [49201-49400] [49401-49600] [49601-49800] [49801-50000] [50001-50200] [50201-50388]